Friday Harbor, WA
on Friday, November 16, 2012

Friday
Previous Day Next Day
Daily Summary
 ActualAverageRecord
Temperature
Mean Temperature °F °F  
Max Temperature 50°F 47°F 57°F (1999)
Min Temperature 42°F 38°F 28°F (2000)
Degree Days
Heating Degree Days 19    
Moisture
Dew Point 41°F   
Average Humidity 83    
Maximum Humidity 93    
Minimum Humidity 69    
Precipitation
Precipitation 0.00 in in in ()
Wind
Wind Speed 5 mph   
Max Wind Speed 16 mph   
Max Gust Speed 26 mph   
Visibility 9 miles   
Events Rain   
Averages and records for this station are not official NWS values.
Key: T is trace of precipitation, MM is missing value
Source: NWS Daily Summary
Seasonal Weather Averages
Time(PST)TemperatureDew PointHumidity Pressure Visibility Wind DirectionWind SpeedGust SpeedPrecipitationEvents Conditions
12:53 AM 42.1°F 39.9°F 92% 29.94 in 7.0 miles Calm Calm - N/A   Overcast
1:53 AM 43.0°F 41.0°F 93% 29.94 in 6.0 miles Calm Calm - N/A   Overcast
2:17 AM 42.8°F 41.0°F 93% 29.93 in 6.0 miles NNE 3.5 mph - N/A   Overcast
2:27 AM 42.8°F 41.0°F 93% 29.93 in 6.0 miles ESE 3.5 mph - N/A   Overcast
2:40 AM 42.8°F 39.2°F 87% 29.93 in 8.0 miles ESE 3.5 mph - N/A   Overcast
2:53 AM 43.0°F 39.9°F 89% 29.93 in 9.0 miles East 3.5 mph - N/A   Overcast
4:14 AM 42.8°F 41.0°F 93% 29.91 in 7.0 miles ESE 3.5 mph - N/A   Overcast
4:43 AM 42.8°F 39.2°F 87% 29.91 in 8.0 miles Calm Calm - N/A   Overcast
4:53 AM 43.0°F 39.9°F 89% 29.91 in 7.0 miles Calm Calm - N/A   Overcast
5:53 AM 43.0°F 39.9°F 89% 29.90 in 9.0 miles East 4.6 mph - N/A   Overcast
6:19 AM 42.8°F 39.2°F 87% 29.89 in 10.0 miles ESE 8.1 mph - N/A   Overcast
6:53 AM 43.0°F 39.9°F 89% 29.89 in 10.0 miles East 8.1 mph - N/A   Overcast
7:37 AM 42.8°F 39.2°F 87% 29.89 in 10.0 miles ESE 8.1 mph - N/A   Overcast
7:53 AM 43.0°F 39.9°F 89% 29.89 in 10.0 miles East 6.9 mph - N/A   Overcast
8:53 AM 44.1°F 39.9°F 85% 29.90 in 9.0 miles East 4.6 mph - N/A   Overcast
9:53 AM 44.1°F 39.0°F 82% 29.90 in 10.0 miles East 6.9 mph - N/A   Overcast
10:53 AM 44.1°F 39.0°F 82% 29.90 in 10.0 miles East 5.8 mph - N/A   Overcast
11:48 AM 44.6°F 39.2°F 81% 29.88 in 10.0 miles East 5.8 mph - N/A   Overcast
11:53 AM 45.0°F 39.0°F 80% 29.88 in 10.0 miles East 6.9 mph - N/A   Overcast
12:26 PM 44.6°F 39.2°F 81% 29.87 in 10.0 miles East 8.1 mph - N/A   Overcast
12:53 PM 46.0°F 39.0°F 76% 29.86 in 10.0 miles East 6.9 mph - N/A   Overcast
1:01 PM 46.4°F 39.2°F 76% 29.86 in 10.0 miles East 6.9 mph - N/A   Overcast
1:53 PM 46.9°F 39.0°F 74% 29.84 in 10.0 miles ENE 4.6 mph - N/A   Overcast
2:53 PM 46.9°F 39.0°F 74% 29.81 in 10.0 miles ENE 5.8 mph - N/A   Mostly Cloudy
3:07 PM 48.2°F 39.2°F 71% 29.80 in 10.0 miles East 4.6 mph - N/A   Scattered Clouds
3:53 PM 48.0°F 39.9°F 74% 29.81 in 10.0 miles ESE 9.2 mph - N/A   Clear
4:53 PM 48.9°F 39.0°F 69% 29.78 in 10.0 miles ESE 12.7 mph - N/A   Partly Cloudy
5:37 PM 48.2°F 42.8°F 82% 29.76 in 10.0 miles ESE 15.0 mph 21.9 mph N/A   Overcast
5:53 PM 48.0°F 42.1°F 80% 29.76 in 10.0 miles ESE 12.7 mph 23.0 mph N/A   Overcast
6:20 PM 48.2°F 41.0°F 76% 29.75 in 10.0 miles ESE 8.1 mph - N/A   Overcast
6:53 PM 48.0°F 42.1°F 80% 29.74 in 10.0 miles ESE 10.4 mph - N/A   Overcast
7:18 PM 48.2°F 42.8°F 82% 29.73 in 10.0 miles ESE 6.9 mph - N/A   Mostly Cloudy
7:53 PM 48.9°F 43.0°F 80% 29.73 in 10.0 miles East 6.9 mph - N/A   Overcast
8:31 PM 48.2°F 42.8°F 82% 29.71 in 10.0 miles ESE 6.9 mph - N/A   Mostly Cloudy
8:53 PM 48.9°F 44.1°F 83% 29.70 in 10.0 miles ESE 9.2 mph - N/A   Overcast
9:02 PM 50.0°F 44.6°F 82% 29.70 in 10.0 miles ESE 12.7 mph - N/A   Overcast
9:53 PM 48.9°F 43.0°F 80% 29.69 in 10.0 miles SE 15.0 mph 23.0 mph 0.00 in Rain Light Rain
10:14 PM 48.2°F 42.8°F 82% 29.68 in 10.0 miles ESE 12.7 mph - 0.00 in Rain Light Rain
10:53 PM 48.9°F 42.1°F 77% 29.66 in 10.0 miles ESE 13.8 mph 25.3 mph 0.00 in   Scattered Clouds
11:53 PM 48.9°F 43.0°F 80% 29.64 in 10.0 miles SE 16.1 mph 26.5 mph N/A   Mostly Cloudy
Moon Phase
Nov. 16 Nov. 20 Nov. 28 Dec. 06 Dec. 13
Sunrise:07:22 AM (PST) Moon Rise:10:26 AM (PST)11/16
Sunset:04:30 PM (PST) Moon Set:07:34 PM (PST)11/16

Copyright © 2014 The Weather Underground, Inc.